Find Nigcomsat 1

NORAD ID: 31395 Int'l Des: 2007-018 Owner: NGCOM Country: NG operational
HEOCIRCULARGSO

Live-Position

3D-Globus wird geladen...

Über Nigcomsat 1

Beschreibung wird geladen...

Nächste Überflüge

Passes for default location (London). Set your location on the main map for personalized predictions.

Höhenverlauf

Loading altitude history...

Zweizeiliger Elementsatz

1 31395U 07018A 26131.76755578 -.00000227 00000-0 00000-0 0 9992
2 31395 11.8081 33.1563 0003830 99.0034 105.1309 1.00209252 69692
Epoch: 11. Mai 2026 • Age: 24 hours

Aktueller Status

Höhe 35808.5 km
Geschwindigkeit 3.07 km/s
Subsatellitenpunkt -4.69°S, 90.79°E
Startdatum 13. Mai 2007
Alter 18.9 years
Typ other

Technische Details

Klassifizierung Payload
Masse 5086.00 kg
Trockenmasse 2500.00 kg
Gesamtmasse 5086.00 kg
Länge 5.00 m
Durchmesser 2.50 m
Spannweite 30.00 m
Form Box + 2 Pan
Hersteller CAST
Bus-Typ DFH-4
Phasenstatus In Orbit
Besitzer/Staat NGCOM/NG

Most Searched